Location: Braunsdorf
(50.7357°N, 11.9136°E)
Time: 00:47:04
(UTC+00:00)

Cosmos 2100 Rocket - Pass Details

Date: 17 February 2020
Orbit: 955 x 1002 km, 82.9° (Epoch: 04 April)

Event Time Altitude Azimuth Distance (km) Brightness Sun altitude
Rises 04:51:49 0° 348° (NNW) 3,696 6.9 -14.8°
Reaches altitude 10° 04:54:22 10° 346° (NNW) 2,737 6.2 -14.4°
Maximum altitude 05:00:33 66° 266° (W) 1,055 3.9 -13.5°
Drops below altitude 10° 05:06:38 10° 185° (S) 2,689 6.3 -12.5°
Sets 05:09:07 0° 183° (S) 3,627 7.0 -12.1°
